{"data":{"norad_id":63415,"intl_designator":"2025-065S","name":"STARLINK-33664","alt_names":[],"object_type":"PAYLOAD","status":"ACTIVE","operator":null,"country":"US","launch_date":"2025-03-31","launch_site_code":"AFETR","launch_vehicle":null,"mission":null,"orbit_class":"UNKNOWN","rcs_meters":null,"size_class":null,"mass_kg":null,"dimensions":null,"purposes":["comms"],"wikipedia_slug":null,"has_3d_model":false,"image_url":null,"decayed_at":null,"tle_current":{"epoch":"2026-05-25T02:01:20.508096Z","epoch_age_seconds":78513,"freshness":"FRESH","line1":"1 63415U 25065S   26145.08426514  .00011136  00000+0  41341-3 0  9992","line2":"2 63415  43.0043  35.5850 0001246 263.3479  96.7231 15.27592851 64528","mean_motion":15.27592851,"eccentricity":0.0001246,"inclination_deg":43.0043,"raan_deg":35.585,"arg_perigee_deg":263.3479,"mean_anomaly_deg":96.7231,"bstar":0.00041341,"rev_number":6452,"period_min":94.265955686906,"perigee_km":482.15571679937,"apogee_km":483.86551478522,"semimajor_km":6861.1476157923,"source":"CELESTRAK","updated_at":"2026-05-25T13:38:19.971900Z"}}}